Location: Boiro
(42.6475°N, 8.8834°W)
Time: 06:23:32
(UTC+01:00)

Vanguard 1 - Pass Details

Date: 01 December 2021
Orbit: 652 x 3830 km, 34.2° (Epoch: 21 January)

Event Time Altitude Azimuth Distance (km) Brightness Sun altitude
Rises 07:36:39 0° 280° (W) 7,698 - -12.5°
Reaches altitude 10° 07:42:45 10° 275° (W) 6,348 - -11.4°
Exits shadow 07:42:58 10° 275° (W) 6,300 13.5 -11.4°
Maximum altitude 07:59:03 40° 215° (SW) 3,144 12.5 -8.6°
Drops below altitude 10° 08:08:47 10° 150° (SSE) 3,835 14.0 -7.0°
Sets 08:11:30 0° 142° (SE) 4,483 14.7 -6.5°
